MST,Max TemperatureF,Mean TemperatureF,Min TemperatureF,Max Dew PointF,MeanDew PointF,Min DewpointF,Max Humidity, Mean Humidity, Min Humidity, Max Sea Level PressureIn, Mean Sea Level PressureIn, Min Sea Level PressureIn, Max VisibilityMiles, Mean VisibilityMiles, Min VisibilityMiles, Max Wind SpeedMPH, Mean Wind SpeedMPH, Max Gust SpeedMPH,PrecipitationIn, CloudCover, Events, WindDirDegrees
2013-2-1,44,39,34,30,24,20,89,66,43,30.38,30.22,30.10,10,10,10,36,14,46,T,5,,269
2013-2-2,46,37,27,22,21,21,75,56,37,30.48,30.39,30.28,10,10,10,21,10,26,0.00,1,,266
2013-2-3,45,34,22,25,21,19,88,63,37,30.31,30.16,29.99,10,10,10,18,5,24,0.00,1,,253
2013-2-4,45,40,35,26,23,20,59,52,44,30.06,30.01,29.98,10,10,10,31,10,38,0.00,7,,256
2013-2-5,45,38,31,29,26,24,78,68,57,30.04,29.93,29.83,10,10,10,13,4,14,0.00,6,,252
2013-2-6,45,37,29,28,21,17,64,52,40,30.17,30.03,29.90,10,9,2,22,8,31,T,4,Snow,250
2013-2-7,41,32,23,21,20,18,81,63,44,30.16,30.04,29.88,10,10,10,10,3,12,0.00,3,,259
2013-2-8,42,31,20,22,19,16,88,65,41,30.11,30.04,29.89,10,10,10,12,4,16,0.00,0,,275
2013-2-9,38,29,19,27,22,14,92,66,40,30.14,29.97,29.83,10,6,0,20,7,26,0.12,5,Fog-Snow,283
2013-2-10,30,21,11,22,16,8,84,69,53,30.32,30.25,30.13,10,9,1,16,7,20,0.01,5,Snow,313
2013-2-11,34,20,5,18,12,3,92,73,54,30.30,30.24,30.20,10,10,10,16,4,22,0.00,1,,199
2013-2-12,40,30,20,24,22,14,77,63,48,30.25,30.17,30.11,10,10,10,25,13,33,0.00,7,,270
2013-2-13,45,39,32,24,22,19,61,51,41,30.23,30.09,29.99,10,10,10,35,17,47,0.00,5,,278
2013-2-14,35,28,20,21,20,18,92,74,56,30.48,30.37,30.23,10,5,0,23,7,29,0.14,8,Fog-Snow,272
2013-2-15,45,36,27,27,23,17,69,59,48,30.52,30.43,30.33,10,10,10,21,9,26,0.00,0,,276
2013-2-16,48,36,24,28,25,21,88,65,42,30.32,30.11,29.85,10,10,10,28,3,35,T,2,Snow,262
2013-2-17,40,34,28,30,24,19,92,70,48,30.15,29.93,29.73,10,8,1,28,12,35,0.01,7,Snow,288
2013-2-18,37,28,18,25,20,16,88,70,51,30.23,30.09,29.99,10,8,2,16,3,18,0.01,4,Snow,319
2013-2-19,39,32,25,20,18,16,75,58,40,29.97,29.84,29.71,10,10,10,12,3,15,0.00,5,,280
2013-2-20,36,29,21,26,20,13,92,73,53,30.01,29.91,29.80,10,8,1,14,4,18,0.02,6,Snow,266
2013-2-21,36,27,18,16,12,9,73,53,32,30.10,30.03,29.86,10,10,10,23,9,29,0.00,3,,251
2013-2-22,43,35,26,19,16,13,63,46,29,30.04,29.88,29.66,10,10,10,23,9,30,0.00,5,,240
2013-2-23,40,34,28,28,17,8,78,55,32,30.19,29.84,29.58,10,9,1,29,13,41,0.01,7,Snow,269
2013-2-24,40,31,21,14,13,11,60,45,30,30.30,30.22,30.17,10,10,10,26,11,33,0.00,3,,263
2013-2-25,40,31,21,28,16,14,77,59,40,30.17,30.03,29.82,10,10,2,25,5,31,T,3,Snow,264
2013-2-26,41,34,26,17,14,12,58,48,37,30.34,30.22,30.06,10,10,10,23,11,29,0.00,4,,263
2013-2-27,46,33,19,16,14,12,74,51,28,30.41,30.33,30.19,10,10,10,17,4,21,0.00,4,,243
2013-2-28,46,35,24,29,21,15,70,54,37,30.40,30.35,30.23,10,10,10,22,6,29,0.00,5,,258